Tracking 18840 objects as of 18-November-2017
HD Live streaming from Space Station
objects crossing your sky now

FENGYUN 1C DEB

Track FENGYUN 1C DEB now!
10-day predictions


NORAD ID: 36684
Int'l Code: 1999-025DZE
Perigee: 724.6 km
Apogee: 814.1 km
Inclination: 99.5 °
Period: 100.1 minutes
Semi major axis: 7140 km
RCS: 0.0009 m2 (small)
Launch date: May 10, 1999
Source: People's Republic of China (PRC)
Launch site: Taiyaun Space Center, China (TSC)

Note: This is SATELLITE DEBRIS
aabbcc
Your satellite tracking list
Your tracking list is empty




NASA's NSSDC Master Catalog

Two Line Element Set (TLE):
1 36684U 99025DZE 17320.92655499 +.00000693 +00000-0 +23696-3 0  9991
2 36684 099.5012 004.7110 0062616 144.7519 215.7831 14.38874685232008
Source of the keplerian elements: AFSPC